User: anonymous   Login
Location: Unspecified
(0.0000°N, 0.0000°E)
Time: 06:41:47
(UTC+00:00)
Language:

USA 229 - Orbit

View from above orbital plane
View from above orbital plane
View from above satellite
View from above satellite

Ground track
Ground track

The orbit data is extracted from the following two-line orbital elements,

1 37386U 11014A   15072.78891567 0.00000000  00000-0  00000-0 0    03
2 37386  63.4425 318.6539 0009004 139.2040 220.7960 13.40675465    07
Epoch (UTC): 13 March 2015 18:56:02
Eccentricity: 0.0009004
inclination: 63.4425°
perigee height: 1100 km
apogee height: 1113 km
right ascension of ascending node: 318.6539°
argument of perigee: 139.2040°
revolutions per day: 13.40675465
mean anomaly at epoch: 220.7960°
orbit number at epoch: 0

The dashed part of the orbit path shows where the satellite is in the earth's shadow,  

DLR